Location: Newark
(7.0858°N, 171.3717°E)
Time: 03:30:24
(UTC+00:00)

Vanguard 2 - Pass Details

Date: 04 December 2020
Orbit: 553 x 2937 km, 32.9° (Epoch: 26 January)

Event Time Altitude Azimuth Distance (km) Brightness Sun altitude
Rises 06:10:16 0° 267° (W) 3,243 12.4 0.7°
Reaches altitude 10° 06:13:07 10° 247° (WSW) 2,578 12.6 0.0°
Maximum altitude 06:17:25 19° 203° (SSW) 2,407 10.8 -1.0°
Drops below altitude 10° 06:23:10 10° 162° (SSE) 3,618 11.0 -2.3°
Sets 06:28:19 0° 147° (SSE) 5,125 11.6 -3.5°
